Location: Unspecified
(0.0000°N, 0.0000°E)
Time: 13:19:01
(UTC+00:00)

STARLINK-32852 - Visible Passes

Search period start: 20 May 2026 00:00
Search period end: 30 May 2026 00:00
Orbit: 474 x 476 km, 53.2° (Epoch: 20 May)

Date Brightness Start Highest point End Pass type
(mag) Time Alt. Az. Time Alt. Az. Time Alt. Az.
20 May ? 19:22:10 10° W 19:24:01 13° SW 19:25:54 10° SSW visible
21 May ? 05:28:47 10° S 05:31:38 21° SE 05:34:28 10° ENE visible
21 May ? 18:52:06 10° W 18:54:31 17° SW 18:56:57 10° SSW visible
22 May ? 04:59:39 10° SSE 05:02:07 17° SE 05:04:34 10° E visible
22 May ? 18:22:10 10° WNW 18:24:59 21° SW 18:27:49 10° S visible
23 May ? 04:30:41 10° SSE 04:32:34 13° SE 04:34:28 10° E visible
24 May ? 04:02:14 10° SE 04:03:00 11° SE 04:03:55 10° ESE visible
25 May ? 05:08:42 17° WSW 05:11:08 36° NW 05:14:33 10° NNE visible
26 May ? 04:40:57 42° W 04:41:31 47° WNW 04:45:05 10° NNE visible
27 May ? 04:13:06 38° N 04:13:06 38° N 04:15:32 10° NNE visible
28 May ? 03:45:10 16° NNE 03:45:10 16° NNE 03:45:56 10° NNE visible
